Wind_Speed
29 29 30 27 24 21 21 21 21 21 23 22 21 20 19 17 16 15 14 13 13 12 11 9 9 9 9 8 8 8 8 8 9 9 9 9 10 10 11 11 12 13 14 15
31 31 33 31 27 25 23 22 21 21 22 22 22 21 20 19 17 15 15 14 14 13 11 11 11 10 10 10 10 10 10 10 10 10 10 10 10 10 11 12 12 13 14 15
34 33 35 35 30 28 26 25 24 24 23 22 23 23 22 20 19 18 17 16 15 14 13 13 13 13 12 11 12 12 12 12 12 12 12 12 12 12 12 13 13 14 14 15
37 36 38 35 32 31 29 28 27 26 25 25 25 24 24 23 21 18 18 17 16 16 15 14 14 15 14 14 14 14 14 14 14 15 15 14 14 14 14 14 15 14 15 16
40 39 39 36 34 34 33 31 29 28 27 27 27 26 25 24 22 21 20 19 19 18 17 16 17 17 16 16 16 17 17 17 17 17 16 16 16 16 16 16 16 16 16 17
43 41 39 36 34 35 35 35 32 31 30 29 29 28 27 26 25 24 24 22 21 20 19 19 19 19 19 19 19 19 19 19 19 18 18 17 17 17 17 17 17 18 18 19
45 43 40 37 36 37 38 36 34 33 32 31 31 30 29 28 27 27 26 24 23 22 22 21 21 21 21 21 21 21 21 21 20 20 19 19 19 19 19 19 19 20 20 20
45 44 42 37 37 39 39 37 36 34 34 34 32 31 30 28 28 27 26 26 25 24 24 23 23 23 23 23 23 23 23 23 22 22 21 21 21 21 21 21 21 21 21 22
46 44 40 39 39 40 40 38 37 36 36 36 35 33 32 30 28 29 29 29 28 27 26 25 25 25 24 24 25 24 24 24 24 23 23 23 23 22 22 22 22 22 22 22
47 45 42 39 39 40 40 40 38 37 38 37 36 34 34 33 31 30 31 30 30 29 28 27 27 26 26 26 26 26 25 25 25 24 24 23 23 23 23 23 23 23 23 23
47 45 43 41 40 39 39 40 40 39 38 38 38 36 35 34 33 32 31 31 31 30 29 28 28 28 27 27 27 26 25 25 24 24 24 23 23 23 23 23 23 23 23 23
45 44 42 41 40 40 40 40 40 40 39 38 37 37 36 36 34 32 32 31 31 30 30 29 29 28 28 28 28 27 26 25 24 24 24 24 23 23 23 23 23 24 24 25
41 41 41 40 39 39 40 41 42 42 41 39 38 37 35 35 34 33 32 32 31 31 30 30 29 29 29 29 28 27 26 26 25 24 24 24 23 23 23 23 23 23 24 25
38 38 39 39 39 38 37 38 37 36 36 36 36 35 34 34 34 33 33 32 31 31 31 30 30 30 30 29 28 27 26 25 25 24 24 24 23 22 22 22 23 24 24 24
36 36 35 36 36 35 34 34 33 32 32 33 34 34 34 33 33 32 33 32 31 31 31 31 31 30 30 29 28 27 26 25 24 24 23 23 22 22 22 22 23 24 23 23
35 35 34 31 31 31 30 30 30 30 31 31 32 33 33 33 33 32 32 31 30 30 30 30 30 29 28 28 27 26 26 25 24 23 22 21 21 22 22 23 23 23 23 23
34 35 35 33 31 30 29 29 29 29 29 30 31 31 31 31 31 31 31 31 30 29 28 28 29 28 28 28 27 26 25 24 23 22 21 21 21 21 22 22 22 22 23 23
29 29 30 30 30 30 29 27 27 27 28 29 30 30 31 31 31 30 30 29 28 27 27 27 27 27 26 26 25 24 23 22 22 21 21 20 20 21 21 21 21 22 22 22
25 25 26 26 27 28 28 27 27 28 29 29 29 30 30 30 30 30 29 28 27 27 27 26 25 24 23 23 22 22 22 22 22 21 20 20 20 20 21 20 20 21 21 22
24 24 24 25 26 26 27 27 27 27 27 28 27 27 27 27 27 27 26 25 25 25 25 24 24 23 22 21 21 20 21 21 20 20 20 20 20 20 20 20 21 21 22 21
23 23 23 23 24 24 25 25 25 25 25 26 25 25 24 24 24 23 23 23 23 22 22 21 21 20 20 20 20 20 20 19 19 19 19 19 19 19 19 20 20 20 20 20
20 21 22 22 22 22 22 22 22 22 22 22 22 22 21 21 20 20 20 20 19 19 18 18 19 18 18 18 18 18 18 19 19 19 19 19 19 19 19 20 20 20 20 21
17 18 19 19 19 19 19 19 19 19 19 19 19 19 19 18 18 17 17 16 16 16 16 17 17 17 17 17 17 17 18 18 18 18 18 19 19 19 19 20 20 21 21 21
14 15 15 15 16 16 16 16 16 16 16 16 16 16 16 16 16 15 15 14 14 14 15 15 16 16 16 17 16 16 17 17 17 17 17 18 19 19 20 21 21 22 22 22
12 12 13 13 13 13 13 13 13 13 13 13 13 14 13 13 13 12 12 12 12 12 13 13 13 14 14 14 15 15 16 16 17 18 18 19 19 20 21 21 21 22 22 22
11 11 11 11 11 11 11 12 11 11 11 12 11 11 11 12 12 12 12 12 12 13 13 13 13 14 14 14 14 16 17 17 18 19 19 20 20 21 21 21 22 23 23 23
9 10 10 10 11 10 10 10 10 9 9 9 9 9 9 10 11 10 10 11 11 12 13 14 14 15 15 16 16 17 18 18 19 20 20 21 21 22 22 23 23 23 24 24
Wind_Direction
226 221 223 228 231 234 241 248 249 245 243 247 255 264 271 279 287 295 299 304 306 308 305 303 303 303 306 307 305 307 309 310 309 308 305 298 289 284 280 272 266 263 261 259
228 222 222 225 227 231 236 241 245 242 241 245 251 258 267 273 281 292 295 298 305 303 303 303 300 299 300 298 297 298 300 300 302 304 306 303 295 286 288 283 274 268 263 264
231 227 225 225 226 229 232 237 241 242 245 249 253 258 267 274 280 285 290 291 297 302 299 298 296 295 296 292 291 292 293 295 296 297 300 299 295 293 292 287 284 276 272 271
234 230 229 226 225 228 231 234 238 241 243 247 256 260 263 268 276 282 286 290 292 299 296 294 293 293 292 291 291 292 291 292 292 292 292 293 293 291 290 287 283 281 276 274
237 234 232 228 226 229 231 235 236 239 242 247 253 258 261 265 271 278 280 285 290 294 293 291 289 289 289 290 290 289 290 289 289 290 291 290 289 288 286 286 284 281 279 278
237 236 234 230 227 229 233 235 236 239 243 248 253 258 265 268 272 276 280 283 285 286 288 289 288 287 287 289 289 288 288 288 289 288 287 287 288 286 285 284 284 282 279 277
236 237 237 232 228 229 232 236 238 240 243 248 253 259 264 268 271 276 277 278 279 282 285 286 286 285 285 286 287 287 288 289 288 287 284 284 285 284 283 283 282 281 279 278
235 238 237 233 230 230 233 236 238 242 246 251 255 259 263 266 269 274 275 276 279 282 284 285 284 283 283 284 285 286 287 286 286 285 283 282 283 282 281 281 282 281 278 277
233 237 238 235 233 231 234 236 239 243 249 252 254 259 261 265 269 271 274 276 279 281 284 284 283 282 282 283 284 285 284 283 284 284 283 282 282 281 282 282 282 282 279 278
233 236 236 235 234 233 234 236 239 244 248 251 254 256 261 263 267 272 274 275 277 279 280 281 281 281 281 282 284 284 284 283 282 282 282 281 280 279 280 281 281 281 280 279
231 234 234 234 232 232 234 236 238 241 246 249 252 257 261 264 265 269 272 274 274 276 277 278 278 280 281 281 282 283 283 282 282 281 281 280 279 279 278 278 278 278 279 279
228 231 234 234 233 233 235 238 240 242 246 249 251 254 258 261 263 267 271 272 272 273 275 276 277 279 280 281 281 282 281 280 281 280 280 280 279 278 276 276 276 278 280 279
226 229 232 233 234 236 237 239 240 242 245 248 252 255 257 260 263 265 268 269 271 272 274 275 276 277 279 279 279 280 280 280 279 278 279 278 277 275 275 276 275 277 279 279
226 229 230 233 236 236 237 237 238 242 246 250 254 256 258 261 265 266 267 269 271 273 273 274 275 276 278 278 277 278 279 279 278 278 278 277 276 275 275 276 277 277 279 281
228 230 233 233 234 235 236 239 241 245 248 251 254 258 261 263 266 267 267 268 270 271 272 272 273 274 276 275 275 275 277 277 277 276 276 274 275 276 276 277 278 279 280 281
232 234 234 235 234 235 239 242 243 245 249 254 257 259 262 264 267 268 267 267 268 269 270 270 270 271 272 272 272 273 274 275 274 274 273 274 276 277 277 278 279 280 280 282
232 235 237 239 241 241 242 243 245 248 252 256 258 259 261 264 266 267 268 269 268 268 268 268 268 268 269 270 270 271 271 272 272 273 273 275 277 279 279 279 279 281 280 282
233 235 238 239 239 239 243 247 250 253 255 257 259 260 262 264 266 266 267 268 267 266 265 265 266 267 268 268 268 267 267 267 270 272 273 273 274 277 279 279 280 281 283 285
235 236 239 240 241 246 248 251 253 255 257 259 260 261 262 263 264 265 266 266 265 265 264 264 264 264 264 265 266 267 267 268 270 271 272 273 273 276 279 280 282 284 286 287
237 237 238 240 243 246 248 250 251 253 255 256 257 257 259 260 261 262 263 263 264 264 264 263 261 261 262 264 266 266 266 267 268 269 270 271 273 277 279 280 283 284 286 287
235 236 238 240 243 245 247 249 250 251 252 253 255 255 256 257 258 260 260 260 261 261 261 259 258 258 261 263 264 264 264 265 266 267 270 272 274 276 279 280 282 284 286 287
231 233 236 239 240 242 245 247 247 248 249 249 250 252 254 254 255 255 257 258 258 257 256 256 256 258 260 263 265 265 266 267 266 266 268 272 274 278 281 283 285 286 286 287
227 229 230 233 234 237 239 241 243 244 245 245 247 249 249 249 250 251 251 252 252 252 254 256 257 257 259 262 265 266 266 266 267 268 270 273 276 280 283 284 285 286 287 288
220 222 223 226 230 232 233 235 238 240 242 242 242 242 242 244 244 243 245 248 249 250 253 256 257 258 260 263 264 264 266 267 268 270 273 276 278 280 283 284 285 285 286 288
212 213 218 222 223 222 223 226 231 233 233 234 233 232 233 235 237 240 246 250 250 253 255 255 259 262 263 265 266 266 268 271 272 276 279 280 281 283 284 285 285 285 286 287
198 202 205 208 210 210 213 217 222 224 224 225 227 228 230 235 241 244 247 249 251 255 257 259 261 263 266 268 269 269 271 274 277 280 281 282 283 285 285 285 286 285 286 288
175 180 187 191 192 194 198 203 207 210 214 217 219 226 233 240 244 245 247 249 253 257 260 262 264 267 269 270 271 273 275 277 280 282 283 284 284 285 285 286 286 287 288 289
Height
5832 5836 5839 5841 5843 5846 5847 5848 5850 5852 5854 5856 5857 5858 5859 5859 5859 5859 5859 5859 5858 5857 5857 5856 5856 5856 5855 5854 5853 5853 5852 5851 5850 5849 5848 5847 5846 5845 5845 5844 5844 5844 5844 5844
5825 5830 5832 5835 5838 5841 5842 5844 5845 5847 5849 5851 5853 5854 5855 5856 5856 5857 5857 5856 5855 5854 5854 5853 5853 5853 5853 5852 5851 5850 5850 5849 5848 5847 5846 5845 5843 5843 5842 5841 5840 5840 5839 5840
5818 5823 5826 5829 5834 5835 5837 5839 5840 5842 5845 5846 5848 5849 5851 5852 5853 5854 5853 5853 5852 5852 5851 5850 5850 5850 5850 5849 5848 5848 5847 5846 5845 5844 5844 5842 5841 5840 5839 5838 5837 5836 5836 5835
5811 5816 5818 5826 5828 5829 5831 5833 5835 5837 5840 5841 5843 5845 5847 5848 5849 5850 5850 5849 5848 5848 5847 5847 5847 5846 5846 5845 5845 5844 5844 5843 5842 5841 5840 5839 5838 5837 5836 5835 5834 5833 5832 5831
5804 5807 5811 5818 5821 5823 5825 5827 5829 5832 5834 5836 5839 5840 5842 5844 5845 5845 5845 5845 5845 5844 5843 5843 5843 5842 5842 5841 5841 5840 5839 5838 5838 5837 5836 5834 5834 5833 5832 5830 5829 5828 5827 5826
5796 5800 5804 5812 5816 5817 5819 5820 5824 5826 5829 5831 5833 5836 5838 5839 5840 5840 5840 5840 5840 5840 5839 5839 5838 5837 5837 5836 5836 5835 5834 5833 5833 5832 5831 5829 5828 5827 5826 5825 5824 5823 5823 5822
5788 5791 5796 5803 5808 5810 5813 5815 5819 5821 5823 5826 5828 5831 5833 5833 5834 5835 5835 5834 5834 5834 5834 5833 5833 5832 5832 5831 5830 5830 5829 5828 5827 5826 5825 5824 5823 5822 5821 5820 5819 5818 5817 5816
5780 5784 5790 5796 5800 5803 5805 5809 5812 5815 5818 5820 5822 5824 5826 5827 5828 5828 5828 5828 5828 5828 5828 5827 5827 5826 5826 5825 5824 5824 5823 5821 5820 5820 5819 5818 5817 5816 5815 5814 5813 5812 5811 5810
5772 5777 5782 5787 5792 5795 5799 5802 5805 5808 5811 5813 5815 5817 5819 5820 5820 5821 5821 5821 5821 5821 5821 5821 5820 5820 5819 5818 5818 5817 5816 5815 5814 5813 5812 5811 5811 5810 5808 5807 5806 5805 5804 5803
5763 5767 5773 5779 5783 5788 5792 5796 5798 5801 5804 5806 5807 5809 5811 5812 5812 5813 5814 5814 5814 5814 5814 5814 5814 5813 5812 5811 5810 5810 5809 5808 5807 5806 5806 5805 5804 5803 5802 5801 5800 5799 5798 5797
5754 5759 5765 5769 5774 5779 5783 5787 5790 5793 5796 5798 5800 5802 5803 5804 5805 5806 5806 5806 5807 5807 5807 5807 5806 5805 5805 5804 5803 5802 5801 5800 5800 5799 5798 5797 5797 5796 5795 5794 5793 5792 5791 5790
5746 5752 5757 5762 5766 5771 5775 5778 5782 5785 5788 5789 5791 5792 5795 5797 5797 5798 5798 5799 5798 5798 5798 5798 5798 5797 5797 5796 5795 5795 5794 5793 5793 5792 5791 5790 5789 5788 5787 5787 5786 5785 5784 5783
5739 5744 5748 5753 5758 5762 5766 5770 5772 5775 5778 5780 5782 5784 5786 5788 5788 5789 5790 5790 5790 5790 5790 5790 5790 5790 5789 5788 5788 5787 5786 5786 5785 5784 5784 5783 5782 5781 5780 5780 5779 5778 5777 5776
5732 5736 5740 5745 5749 5753 5757 5760 5763 5766 5769 5772 5774 5776 5778 5779 5780 5781 5781 5781 5781 5782 5782 5782 5782 5782 5781 5781 5780 5780 5779 5778 5778 5777 5776 5775 5775 5774 5773 5773 5772 5771 5769 5768
5725 5730 5734 5737 5741 5745 5748 5752 5755 5758 5761 5764 5766 5767 5769 5770 5771 5772 5772 5772 5773 5773 5773 5773 5773 5773 5773 5773 5773 5772 5772 5771 5770 5770 5769 5768 5768 5767 5766 5765 5765 5763 5762 5761
5718 5722 5726 5729 5733 5737 5740 5744 5747 5751 5754 5756 5757 5759 5760 5761 5762 5763 5763 5764 5764 5764 5764 5764 5765 5765 5765 5765 5765 5764 5764 5763 5763 5762 5762 5761 5761 5760 5759 5758 5757 5756 5755 5754
5712 5715 5719 5723 5727 5730 5733 5737 5740 5743 5745 5747 5749 5750 5751 5752 5754 5755 5755 5755 5755 5756 5756 5756 5756 5757 5757 5757 5757 5757 5756 5756 5756 5755 5755 5754 5754 5753 5752 5751 5750 5749 5748 5746
5705 5709 5712 5716 5720 5724 5726 5729 5732 5734 5736 5739 5740 5742 5743 5744 5745 5746 5746 5746 5747 5747 5748 5748 5748 5749 5749 5749 5749 5749 5749 5749 5749 5749 5748 5748 5747 5746 5745 5744 5743 5742 5740 5739
5700 5704 5707 5710 5713 5716 5719 5722 5724 5726 5728 5730 5732 5733 5735 5736 5737 5737 5738 5738 5739 5740 5740 5740 5741 5741 5742 5742 5742 5742 5742 5742 5742 5742 5742 5741 5741 5740 5739 5737 5736 5735 5733 5732
5695 5698 5700 5703 5706 5709 5712 5714 5716 5718 5720 5722 5724 5725 5727 5728 5728 5729 5730 5730 5731 5732 5733 5733 5734 5734 5735 5735 5735 5735 5736 5735 5735 5735 5735 5735 5734 5733 5732 5731 5729 5728 5726 5725
5689 5691 5694 5697 5699 5702 5704 5707 5709 5711 5713 5715 5717 5718 5719 5720 5721 5722 5722 5723 5724 5725 5726 5726 5727 5728 5728 5729 5729 5729 5729 5729 5729 5729 5729 5728 5727 5727 5726 5724 5723 5721 5720 5718
5684 5686 5689 5691 5693 5696 5698 5700 5703 5705 5707 5708 5710 5711 5713 5714 5715 5715 5716 5717 5718 5719 5720 5720 5721 5722 5722 5723 5723 5723 5723 5723 5723 5722 5722 5722 5721 5720 5719 5717 5716 5714 5713 5711
5679 5681 5684 5686 5688 5691 5693 5695 5697 5699 5701 5703 5704 5706 5707 5709 5710 5710 5711 5712 5713 5714 5715 5715 5716 5717 5717 5717 5717 5717 5717 5717 5716 5716 5716 5715 5715 5713 5712 5711 5709 5708 5706 5705
5676 5678 5680 5682 5685 5687 5689 5691 5693 5695 5696 5698 5700 5701 5703 5704 5705 5706 5707 5708 5709 5709 5710 5711 5711 5711 5711 5712 5712 5712 5711 5711 5710 5710 5710 5709 5708 5707 5706 5704 5703 5701 5700 5698
5673 5675 5677 5680 5682 5684 5686 5688 5690 5691 5693 5694 5696 5697 5699 5700 5702 5703 5703 5704 5705 5705 5706 5706 5707 5707 5707 5707 5706 5706 5706 5706 5705 5705 5704 5703 5701 5700 5699 5697 5696 5695 5693 5691
5671 5673 5675 5677 5680 5682 5684 5685 5687 5689 5690 5691 5693 5694 5696 5697 5698 5699 5700 5700 5701 5701 5702 5702 5702 5703 5702 5702 5702 5701 5701 5700 5699 5698 5697 5696 5695 5694 5692 5691 5689 5688 5686 5684
5670 5672 5674 5676 5678 5680 5682 5684 5686 5687 5688 5690 5691 5692 5693 5694 5695 5696 5697 5697 5698 5698 5698 5698 5698 5698 5698 5697 5697 5696 5695 5694 5693 5692 5691 5690 5688 5687 5685 5684 5682 5680 5679 5677